This demonstration page uses our WeatherBlox Daily Observations layout. Learn more.

Left ArrowRight Arrow

44.8408, -93.29828

Hourly Observations for March 1, 2016

Temp ( °F °C ) Dew Point ( °F °C ) Humidity (%) Winds ( mph kmh ) Pressure ( in mb ) Visibility ( mi km ) Precip ( " mm )
12:53 am 00:53 Cloudy 19 -7.2 -3 -19.4 37 37 N 12 19 30.16 1021 10 16 0.00 0.00
1:53 am 01:53 Cloudy 18 -7.8 -4 -20 37 37 N 12 19 30.16 1022 10 16 0.00 0.00
2:53 am 02:53 Cloudy 18 -7.8 -1 -18.3 43 43 N 12 19 30.16 1022 10 16 0.00 0.00
3:22 am 03:22 Cloudy with Light Snow 17 -8.3 4 -15.6 56 56 NNW 10 17 30.18 1022 2 3 0.00 0.03
3:53 am 03:53 Cloudy with Light Snow 15 -9.4 9 -12.8 77 77 N 9 15 30.16 1021 2 3 0.00 0.03
4:04 am 04:04 Cloudy with Light Snow 16 -9 9 -13 73 73 NNE 9 15 30.18 1022 2 3 0.00 0.00
4:13 am 04:13 Cloudy with Light Snow 15 -9.4 8 -13.3 74 74 NNE 9 15 30.18 1022 3 5 0.00 0.03
4:53 am 04:53 Cloudy 16 -8.9 1 -17.2 51 51 N 15 24 30.16 1021 10 16 0.00 0.03
5:53 am 05:53 Cloudy 15 -9.4 0 -17.8 51 51 NNE 13 20 30.16 1021 10 16 0.00 0.00
6:53 am 06:53 Cloudy 14 -10 0 -17.8 53 53 N 14 22 30.17 1022 10 16 0.00 0.00
7:53 am 07:53 Cloudy 14 -10 -3 -19.4 47 47 N 13 20 30.19 1022 10 16 0.00 0.00
8:53 am 08:53 Cloudy 15 -9.4 -3 -19.4 44 44 N 12 19 30.21 1023 10 16 0.00 0.00
9:53 am 09:53 Cloudy 15 -9.4 -3 -19.4 44 44 N 12 19 30.22 1023 10 16 0.00 0.00
10:53 am 10:53 Cloudy 16 -8.9 -7 -21.7 35 35 N 7 11 30.22 1023 10 16 0.00 0.00
11:53 am 11:53 Mostly Cloudy 19 -7.2 -6 -21.1 32 32 N 12 19 30.20 1023 10 16 0.00 0.00
12:53 pm 12:53 Mostly Sunny 22 -5.6 -9 -22.8 25 25 NNW 12 19 30.18 1022 10 16 0.00 0.00
1:53 pm 13:53 Sunny 23 -5 -9 -22.8 24 24 NW 14 22 30.16 1021 10 16 0.00 0.00
2:53 pm 14:53 Sunny 25 -3.9 -6 -21.1 25 25 VRB 7 11 30.13 1020 10 16 0.00 0.00
3:53 pm 15:53 Sunny 26 -3.3 -5 -20.6 25 25 NNW 10 17 30.14 1021 10 16 0.00 0.00
4:53 pm 16:53 Sunny 25 -3.9 -3 -19.4 29 29 NW 12 19 30.13 1020 10 16 0.00 0.00
5:53 pm 17:53 Sunny 23 -5 -2 -18.9 33 33 WNW 9 15 30.14 1021 10 16 0.00 0.00
6:53 pm 18:53 Clear 21 -6.1 -2 -18.9 36 36 NW 6 9 30.15 1021 10 16 0.00 0.00
7:53 pm 19:53 Clear 20 -6.7 -1 -18.3 40 40 WNW 5 7 30.16 1021 10 16 0.00 0.00
8:53 pm 20:53 Clear 21 -6.1 0 -17.8 39 39 WSW 5 7 30.16 1021 10 16 0.00 0.00
9:53 pm 21:53 Clear 20 -6.7 0 -17.8 41 41 WSW 3 6 30.15 1021 10 16 0.00 0.00
10:53 pm 22:53 Clear 19 -7.2 9 -12.8 65 65 WSW 8 13 30.14 1021 10 16 0.00 0.00
11:53 pm 23:53 Mostly Clear 18 -7.8 10 -12.2 71 71 WSW 5 7 30.14 1021 10 16 0.00 0.00

Powered by AerisWeather